カタログに戻る

THORAD AGENA D DEB

運用中LEO
NORAD 4177·DEBRIS·🇺🇸 United States

打ち上げ Sep 30, 1969 から Vandenberg Space Force Base

Loading…

次のパス (今後24時間)

TLE

最新Source: Space-Track

元期: Sep 14, 2026, 15:28 UTC

1 04177U 69082AV  26257.64456930  .00000728  00000-0  57336-3 0  9997
2 04177  70.0747  29.5200 0114656 242.0048 116.9418 13.92572088868644

AllMySatでTHORAD AGENA D DEBをリアルタイム追跡

Download on the App Store